Wind_Speed
23 22 22 21 21 20 20 19 19 18 18 18 18 18 19 19 19 18 18 17 17 16 16 16 16 16 15 15 15 14 13 13 13 13 13 13 13 13 13 12 11 11 11 10 10 10 11 12 12 12 12 13 13 13 13 13 13 13 13 13 12 12 13 13 14 15 15 15 14 14 15 15 15 16 16 16 17 17 16 16 16 16 16 15 15 14 14 15
25 25 25 24 24 24 23 23 22 22 21 21 20 20 20 20 20 20 19 19 19 18 18 18 17 17 17 17 17 16 16 15 15 15 15 15 15 15 16 15 14 14 13 13 12 11 12 12 13 13 14 14 14 14 14 14 14 14 14 14 14 14 14 14 15 15 15 15 15 15 15 16 16 16 17 17 18 19 17 18 17 17 17 16 16 15 15 15
28 27 27 27 27 26 26 26 25 25 24 24 24 23 23 22 22 22 22 21 21 21 20 20 20 19 19 19 19 19 18 18 18 17 17 17 17 17 17 17 16 17 17 16 15 15 14 14 13 14 14 15 15 15 15 15 15 16 16 15 16 16 16 16 16 16 16 16 16 16 16 17 17 16 17 18 19 19 19 19 19 19 19 18 18 18 17 17
29 29 29 29 29 29 29 29 28 28 28 27 27 26 26 26 25 25 24 24 24 24 23 23 22 22 22 21 21 21 21 21 20 20 20 20 20 19 19 18 18 19 19 19 19 18 18 17 16 16 16 16 16 16 16 17 17 17 18 17 17 18 18 18 18 17 17 17 17 16 16 17 17 17 18 19 20 20 19 20 21 20 21 20 20 20 20 20
30 30 31 31 31 31 31 31 31 31 30 30 30 30 29 29 29 28 28 27 27 27 26 26 26 25 25 24 24 24 24 24 23 23 23 22 22 22 21 21 20 21 21 21 21 21 21 21 21 20 19 19 19 18 18 19 19 18 19 19 19 19 19 19 19 19 19 19 19 18 17 18 18 18 19 21 22 20 18 21 21 21 22 21 21 21 21 21
31 31 31 32 32 32 33 33 33 33 33 33 33 33 33 32 32 32 31 31 30 30 30 29 29 28 28 27 27 26 26 26 25 25 25 25 25 24 23 23 23 23 23 23 23 24 24 24 24 24 24 23 22 22 21 21 21 21 21 21 21 21 20 20 20 21 20 21 21 20 19 19 18 19 20 23 24 21 19 22 22 23 24 23 22 23 23 22
31 31 31 32 32 33 33 34 34 35 35 35 35 35 35 35 35 34 34 34 33 33 33 33 32 31 31 30 30 29 28 29 28 27 27 27 27 27 26 26 26 26 26 26 26 26 26 27 27 27 27 27 26 26 25 25 24 24 24 23 23 23 23 22 22 22 22 22 23 22 22 20 19 20 22 25 26 22 21 22 23 24 25 25 25 25 26 25
31 31 31 32 32 32 33 34 34 35 36 36 37 37 37 37 37 37 37 36 36 35 35 35 35 34 34 33 32 31 30 31 30 29 29 29 29 29 29 28 28 28 28 28 28 28 29 29 29 29 29 30 30 30 29 29 28 27 27 27 26 26 25 25 25 25 25 24 24 24 24 22 21 21 23 28 27 24 23 23 24 25 26 27 27 27 28 28
31 31 31 31 32 32 33 33 34 35 36 36 37 38 38 39 39 39 39 38 38 38 37 37 37 37 36 36 35 33 33 33 32 32 31 31 31 31 31 30 30 30 30 31 31 31 31 31 32 32 32 32 33 33 33 33 32 31 31 31 30 29 28 28 28 28 28 27 27 27 26 25 22 21 25 29 28 25 26 25 25 26 27 28 28 29 29 30
32 32 32 32 32 32 32 33 33 34 35 36 36 37 38 39 40 40 40 40 40 40 40 39 39 39 38 38 37 35 36 36 34 34 33 33 33 32 32 32 32 32 33 33 33 33 34 33 34 34 34 34 35 35 35 35 35 35 34 34 34 34 33 31 31 31 31 31 30 30 29 27 24 23 25 29 29 29 29 28 28 27 28 29 29 30 30 31
34 34 34 33 33 33 33 33 34 34 34 35 36 36 37 38 39 41 41 41 41 41 41 41 41 41 40 39 38 37 37 37 36 36 35 35 35 34 34 34 34 34 34 34 35 35 36 36 36 36 36 37 37 37 37 37 37 37 37 36 36 37 37 36 35 35 34 34 34 35 33 29 26 25 26 29 29 31 30 30 31 30 30 30 30 31 32 33
36 35 35 35 35 34 34 34 34 35 35 35 36 36 36 37 38 40 41 41 42 42 42 43 43 42 42 41 39 38 38 37 37 37 37 37 37 36 36 36 36 36 36 36 36 37 37 37 38 38 38 38 38 39 39 39 39 39 39 39 38 39 38 38 39 39 38 36 36 39 37 31 28 27 27 30 32 32 31 30 32 32 31 31 32 32 33 35
37 37 36 36 36 35 35 35 35 35 36 36 37 37 37 37 37 39 40 41 42 42 43 43 44 44 44 42 40 40 39 38 38 37 37 37 37 37 38 38 38 38 38 38 37 38 38 38 38 38 38 39 39 40 40 40 41 41 41 41 40 40 40 39 40 41 41 40 39 42 42 34 30 33 31 31 34 34 32 31 33 33 33 33 34 34 35 36
39 38 38 37 37 36 36 35 35 36 36 37 37 38 38 37 38 39 39 40 41 42 43 44 44 45 45 43 41 42 41 40 39 38 38 38 38 38 38 39 39 39 39 39 38 38 38 38 39 38 38 39 40 41 42 41 41 42 44 42 41 42 41 41 41 42 43 43 43 46 47 39 32 36 37 34 35 36 34 33 33 34 34 34 35 36 37 37
39 39 39 38 38 37 37 37 36 36 37 38 38 39 39 39 38 39 39 40 41 42 43 44 45 46 46 44 42 42 42 42 41 40 40 39 39 38 39 40 40 40 40 40 40 39 39 39 39 39 39 40 41 42 42 43 42 43 44 43 43 44 43 42 42 42 44 45 46 49 52 46 35 35 40 40 38 37 36 34 34 35 35 35 36 37 39 39
39 39 39 39 39 39 39 38 38 38 38 39 40 41 41 41 40 40 40 40 41 42 43 44 44 46 47 44 42 43 43 43 43 42 42 41 40 40 41 41 41 41 41 41 41 41 41 41 40 41 41 40 41 43 43 44 43 44 45 43 43 44 44 44 44 43 45 46 47 51 53 50 41 37 39 40 40 40 37 34 34 34 35 37 37 38 39 40
41 40 40 40 40 40 40 40 39 39 39 40 41 42 43 43 42 42 41 41 42 42 43 44 44 46 47 44 42 42 43 44 44 43 43 42 42 42 43 43 43 43 43 43 43 42 42 42 41 42 42 41 41 43 44 44 43 45 47 46 43 43 44 45 46 46 47 48 49 52 53 50 45 41 38 38 40 41 38 35 34 34 35 38 39 38 39 40
42 42 42 41 41 41 41 41 40 40 40 40 42 43 44 45 45 44 43 43 43 43 44 45 45 47 47 44 43 43 43 44 44 44 43 43 43 44 44 44 44 44 44 44 44 43 43 43 43 43 42 40 40 42 45 44 43 44 46 48 46 44 44 43 46 47 47 49 51 51 52 49 44 41 38 36 37 39 37 34 33 34 36 38 40 40 39 40
44 44 44 44 44 43 43 43 42 42 41 42 42 43 44 46 46 46 45 45 45 45 46 46 46 47 47 45 44 44 44 44 45 44 44 43 44 45 44 45 44 45 45 45 45 44 44 45 44 43 40 39 41 42 44 44 44 44 44 46 47 46 44 42 45 47 46 50 52 50 51 49 45 41 37 34 34 36 36 34 33 34 36 37 40 41 41 40
46 46 46 46 46 45 45 45 44 43 43 43 44 45 46 46 46 47 47 46 46 46 48 48 47 47 48 46 45 46 46 45 45 44 44 44 45 45 45 45 45 45 45 45 46 45 44 47 44 40 38 39 42 43 43 43 42 42 43 44 44 45 43 40 43 46 45 50 51 49 51 49 44 41 37 33 32 31 32 33 34 34 35 38 40 41 41 40
48 48 47 47 47 47 48 47 46 46 46 45 46 47 48 48 48 48 48 47 47 48 49 50 50 49 48 47 47 47 47 47 46 44 44 44 45 45 45 45 45 46 45 45 47 46 47 48 42 37 38 39 41 42 42 42 41 41 41 43 43 42 41 40 43 44 44 49 49 47 50 48 43 40 36 32 31 30 29 31 35 35 35 38 41 41 41 38
49 49 49 49 48 49 49 49 49 49 48 48 48 48 49 50 50 51 51 51 49 48 50 51 52 51 50 49 49 48 49 49 46 44 44 45 45 45 46 45 46 47 47 46 47 48 50 49 40 37 40 40 40 41 42 42 43 43 42 44 44 42 42 44 45 44 44 48 48 47 49 47 42 39 35 31 29 30 31 33 36 36 35 38 41 41 39 35
49 49 49 49 49 50 50 50 50 50 51 50 50 50 50 51 52 52 54 56 54 50 50 52 53 53 53 51 50 50 51 50 48 46 45 46 46 46 47 46 46 49 49 47 47 50 53 49 42 40 42 42 42 43 44 45 47 46 46 47 46 43 46 49 47 45 45 48 48 48 50 47 40 38 34 30 29 30 33 37 38 36 35 38 39 39 36 33
48 48 49 49 49 50 51 51 51 51 52 52 52 52 52 53 53 54 56 59 60 55 51 52 54 54 54 53 53 53 53 51 50 48 45 47 47 47 48 48 48 51 50 48 49 53 54 50 45 44 44 45 47 47 47 48 49 49 49 48 47 47 49 51 49 48 47 49 48 48 52 50 41 38 35 29 30 32 32 36 39 37 35 37 37 35 34 32
45 46 47 47 48 49 50 51 51 52 52 53 53 53 54 54 55 56 57 61 64 60 53 53 55 54 54 54 53 53 54 54 53 49 46 48 48 48 50 50 51 53 51 49 52 55 54 50 47 47 48 48 50 50 48 49 51 52 51 48 48 50 51 51 50 50 50 51 49 48 54 53 43 40 37 32 33 34 32 32 37 38 36 35 35 35 34 32
44 45 45 46 46 47 48 49 50 51 52 52 53 54 54 55 55 57 58 62 67 64 58 56 56 55 53 52 51 51 53 54 51 50 49 49 48 49 51 53 53 53 53 51 54 58 55 50 49 49 49 50 51 51 48 48 52 55 53 49 49 51 51 51 51 52 53 53 53 51 53 55 51 44 41 39 37 35 34 32 33 36 37 37 37 36 33 30
44 44 45 45 46 46 47 47 48 49 50 51 52 53 54 55 55 56 57 62 69 69 64 60 58 56 52 51 50 50 51 49 46 48 49 49 50 50 52 54 54 53 53 54 57 59 55 51 50 49 50 51 52 50 48 48 52 56 55 51 50 50 50 51 51 53 55 55 58 55 50 55 59 52 46 45 43 38 36 35 32 33 35 37 38 36 30 28
45 45 45 46 46 46 47 47 48 49 50 50 51 52 53 53 54 55 56 63 70 72 69 65 60 56 53 51 49 48 48 46 44 45 45 47 50 51 53 54 54 55 53 55 59 59 56 52 51 51 52 52 51 49 49 49 52 55 54 52 51 50 51 52 53 55 56 58 61 57 49 53 62 59 53 50 44 40 38 36 33 30 29 30 35 38 33 28
47 47 46 47 47 47 47 47 48 50 50 51 52 52 52 52 54 54 56 64 70 71 71 67 62 58 55 53 51 49 47 45 45 45 44 45 47 50 53 53 55 57 55 56 59 58 56 53 52 52 52 51 50 49 49 49 52 53 53 53 51 51 53 54 55 56 58 62 63 56 50 54 61 60 56 51 45 43 42 38 33 27 26 28 32 39 39 35
51 50 50 50 50 50 50 49 50 51 51 52 52 52 53 54 54 55 61 68 70 69 69 68 66 62 57 54 53 51 49 46 44 44 44 44 45 47 50 52 54 57 56 57 59 57 55 55 54 53 51 50 50 49 49 50 52 53 53 53 53 54 55 56 58 58 61 64 61 55 52 55 61 60 56 54 52 50 44 38 32 26 28 32 34 39 43 42
54 54 53 53 53 53 53 53 53 53 53 54 53 53 53 54 55 59 67 69 68 67 66 68 68 64 59 55 53 53 52 50 47 45 45 45 46 47 48 50 52 55 57 59 59 56 55 55 55 52 50 49 50 49 50 51 52 52 52 53 53 56 58 59 61 60 62 64 60 57 56 58 62 62 59 58 57 54 46 38 33 30 32 35 37 39 41 40
55 55 54 53 54 54 54 55 54 54 55 55 56 56 56 57 59 64 68 67 66 66 65 65 65 63 61 59 56 53 52 52 50 49 48 48 48 49 49 50 50 52 55 58 57 55 56 56 54 53 51 49 49 50 50 50 50 50 51 52 53 57 60 62 64 63 62 63 60 59 60 62 64 62 59 58 56 55 49 39 36 36 35 37 39 38 36 35
55 55 54 53 53 54 55 55 55 56 57 57 58 58 59 62 64 64 65 65 66 66 65 64 65 64 63 62 60 57 55 55 54 52 52 51 51 51 50 50 49 49 51 53 55 56 57 57 55 54 52 49 48 48 48 48 49 50 51 52 54 57 60 63 64 64 63 64 63 62 64 66 65 61 58 55 54 56 51 42 40 39 38 38 37 34 33 35
57 57 57 55 55 55 55 55 56 58 59 60 61 62 63 65 63 61 63 63 63 65 66 66 67 66 66 66 66 63 60 58 56 55 55 54 54 53 51 50 49 47 47 49 53 55 57 58 57 54 51 49 49 47 48 49 51 53 54 55 57 59 60 62 63 63 65 65 65 66 68 68 66 62 60 58 56 57 54 46 42 39 37 34 31 30 34 38
57 59 60 60 58 56 56 56 57 58 61 63 64 65 66 65 62 61 63 63 62 63 63 63 64 65 65 65 65 63 61 60 58 56 56 57 56 54 53 51 49 48 48 49 50 51 53 56 56 54 52 51 52 50 50 52 54 56 56 58 60 59 57 59 62 63 65 67 67 69 70 68 65 63 61 61 60 59 56 48 40 37 34 30 28 31 36 39
60 60 62 63 61 57 57 57 57 59 63 64 66 68 65 61 59 62 64 64 64 63 62 62 62 61 62 62 63 61 60 61 60 59 59 58 57 54 52 51 49 48 49 50 51 51 54 56 54 55 56 54 54 53 52 53 55 58 59 60 60 58 57 60 63 64 65 68 69 69 69 67 64 62 61 61 60 60 56 46 38 36 32 29 31 34 36 38
64 64 65 65 64 61 60 59 58 61 64 66 69 70 67 63 61 64 66 64 64 64 65 66 64 62 64 64 64 63 62 63 62 61 60 59 57 54 52 51 50 49 50 52 54 54 56 58 56 57 60 58 56 55 55 56 59 61 62 62 61 62 62 62 63 65 66 69 70 67 68 67 64 64 64 62 62 61 55 44 38 36 32 31 34 35 36 38
65 66 66 64 64 64 64 63 62 64 67 71 73 71 70 69 64 65 67 64 65 68 68 68 66 65 66 66 66 65 64 65 64 63 62 61 62 58 55 54 52 51 50 52 55 54 55 58 57 57 61 62 60 60 61 62 63 63 63 63 63 65 66 65 65 66 66 69 71 68 66 65 64 63 64 64 64 61 53 44 39 36 33 33 35 35 36 38
67 68 67 63 62 64 66 65 66 67 68 70 72 71 70 68 66 66 66 65 67 70 71 71 69 69 68 67 68 68 67 67 67 66 66 66 66 63 61 60 58 55 53 54 57 56 56 59 59 57 59 61 61 62 64 63 62 62 62 62 63 65 67 68 68 67 67 68 71 68 63 63 62 60 60 63 63 59 51 45 42 38 34 35 36 37 37 39
70 72 71 65 63 63 64 66 69 72 73 72 72 72 70 69 68 67 66 66 68 70 72 74 73 74 73 71 70 70 70 70 70 69 69 68 67 66 65 65 63 61 60 60 60 60 59 61 61 59 58 59 59 57 58 58 58 60 62 62 63 64 66 68 68 67 67 69 70 68 64 63 64 63 63 63 59 54 51 48 46 43 40 40 40 41 42 42
71 72 72 67 66 65 64 68 71 72 73 73 73 73 72 71 70 67 65 67 69 70 71 72 72 74 75 74 73 71 71 72 71 70 70 68 68 69 69 67 67 66 65 64 64 63 62 60 59 59 61 63 62 58 58 59 60 63 65 64 64 63 64 68 68 66 66 69 69 68 68 67 66 66 66 60 55 52 51 51 50 47 46 46 45 45 46 47
75 75 74 71 71 71 71 75 77 76 77 77 75 74 72 71 70 67 67 67 68 71 71 70 70 72 73 73 72 71 72 73 72 72 72 71 70 71 71 70 69 68 67 67 67 67 65 64 65 66 67 67 65 62 62 62 62 64 65 64 63 63 63 67 69 67 67 69 68 68 72 71 67 64 62 57 53 52 52 53 52 50 50 50 47 47 48 51
77 77 78 77 76 76 77 80 82 83 84 81 78 77 75 74 71 65 63 63 64 67 68 67 67 68 68 69 69 68 69 71 71 71 71 71 70 69 68 69 69 69 68 68 68 67 65 66 67 67 67 65 63 62 62 62 63 65 64 61 60 62 62 64 67 68 70 70 67 69 75 75 69 65 60 55 53 53 53 53 52 51 52 52 50 49 51 54
77 77 79 79 79 80 82 85 85 85 84 81 81 80 78 79 79 71 67 67 67 65 64 65 66 67 67 67 67 65 65 68 70 70 70 72 70 66 64 65 66 69 69 68 68 66 66 67 68 68 69 68 65 63 63 64 65 65 62 60 60 62 62 64 66 69 71 69 66 70 76 75 70 65 59 53 53 54 52 51 52 53 53 52 52 53 54 55
82 81 81 79 80 82 83 85 86 87 86 85 86 85 83 85 85 81 80 81 78 72 68 65 64 65 68 68 67 67 66 67 69 68 68 70 69 66 65 65 66 68 67 66 67 67 67 68 69 69 71 71 68 64 63 64 65 66 65 64 64 64 64 66 68 69 71 72 70 73 76 74 68 62 59 56 53 53 51 50 52 53 53 53 54 54 54 54
84 86 86 84 85 86 85 84 86 89 90 89 90 90 89 88 87 85 86 88 86 82 79 76 72 69 70 71 72 72 72 73 74 73 73 72 70 68 68 69 68 68 66 65 66 68 69 69 70 71 73 74 72 69 65 66 69 69 67 67 68 67 68 70 72 73 74 75 75 74 75 74 68 62 60 57 53 53 52 51 52 54 55 55 54 52 51 52
86 87 88 88 89 91 91 89 89 91 91 91 93 93 91 91 90 89 90 91 90 88 86 85 84 81 78 77 77 77 76 77 79 79 77 74 70 68 68 68 67 67 66 64 63 63 65 67 68 70 74 75 74 72 69 69 72 72 70 69 69 68 69 73 76 75 74 77 80 76 72 74 72 65 60 56 54 53 51 49 51 53 55 55 52 51 51 53
87 88 88 88 89 92 93 93 93 94 94 94 95 94 91 89 88 87 88 88 89 90 88 87 87 85 82 79 78 78 75 74 74 72 70 68 67 68 69 69 68 67 66 66 65 64 66 69 68 69 72 72 72 72 71 70 72 73 74 72 70 71 72 73 75 75 76 80 83 77 73 74 73 67 60 56 55 54 52 52 53 54 53 51 52 54 55 58
87 87 87 88 90 92 93 93 94 97 99 99 100 100 98 94 90 87 84 84 85 85 85 85 84 80 75 73 75 78 77 75 75 74 71 69 67 67 69 69 70 71 70 70 68 65 65 68 67 68 71 71 69 69 69 70 72 73 73 73 73 74 74 72 74 78 80 81 80 76 75 74 71 66 62 57 54 54 55 55 55 53 51 50 56 61 62 62
85 86 87 89 90 92 93 93 94 97 99 101 103 104 104 103 101 97 94 94 94 91 89 89 85 80 79 79 82 85 83 81 81 81 79 80 79 79 78 75 73 75 75 74 71 67 65 65 64 65 69 70 67 66 65 66 68 70 72 74 75 76 75 74 77 79 78 77 77 75 75 74 69 62 57 53 51 53 54 52 50 49 49 52 61 67 67 66
84 84 86 89 91 93 93 94 95 96 98 100 101 103 104 106 106 105 105 106 105 103 102 101 96 93 94 95 96 96 92 88 88 88 88 91 92 91 91 88 84 83 82 78 76 73 71 70 69 70 75 75 67 63 64 65 67 71 70 69 73 78 77 73 71 70 70 72 73 72 73 71 63 55 51 51 51 52 50 47 48 50 53 60 68 71 69 66
85 85 85 88 92 93 92 93 94 96 98 99 100 101 103 104 104 105 107 109 107 106 107 107 105 104 104 104 103 101 97 95 95 95 95 96 95 93 95 96 95 94 92 88 85 84 82 82 82 82 86 84 73 68 71 72 75 77 69 60 61 63 61 58 58 60 61 61 63 66 66 62 55 49 50 52 52 51 48 49 55 61 65 69 72 70 65 62
Wind_Direction
257 257 258 259 260 262 264 266 269 271 273 275 276 276 276 276 276 277 278 279 280 281 282 284 287 289 290 291 292 292 291 291 293 296 300 303 305 309 311 315 319 320 321 321 322 321 320 320 321 321 320 321 322 324 326 328 329 328 327 325 321 319 318 316 316 314 314 313 310 307 305 304 305 307 306 307 307 307 307 306 307 305 304 307 306 306 305 304
257 258 258 258 259 260 260 262 263 266 268 270 272 274 275 276 276 277 277 277 278 279 279 280 281 282 284 286 287 287 287 286 286 287 290 292 295 298 300 304 307 308 310 312 313 313 313 313 315 316 315 314 314 314 317 320 320 320 320 320 319 319 318 318 318 317 317 317 317 314 311 309 308 308 306 306 305 305 306 304 305 306 305 307 306 306 308 307
259 259 259 259 260 260 260 261 262 262 264 265 267 268 271 272 274 275 276 276 277 277 277 278 278 278 279 280 281 282 282 282 282 281 282 283 284 287 290 293 298 300 301 303 305 306 306 305 307 307 307 308 307 308 311 312 313 314 314 313 315 315 315 317 317 317 316 316 317 316 316 314 314 313 309 307 305 304 306 304 304 304 304 306 305 306 308 308
260 261 261 261 261 262 262 262 262 263 263 263 264 265 266 267 269 270 271 273 274 274 274 275 275 275 275 275 277 277 278 278 278 278 278 278 278 279 281 284 288 292 294 296 298 300 301 301 302 301 301 302 302 304 306 306 308 308 308 309 311 311 312 313 313 314 314 314 315 315 316 315 316 317 312 309 306 307 311 307 306 306 306 307 306 307 308 308
261 262 262 263 263 263 264 264 264 265 265 265 265 265 265 265 266 267 267 268 269 270 270 271 271 271 271 272 272 273 274 274 275 276 275 275 275 276 277 278 282 284 287 290 292 293 295 297 298 299 299 299 299 300 301 302 302 303 305 306 307 308 308 309 310 311 311 312 312 313 316 315 317 318 314 310 306 311 315 309 309 310 309 310 310 310 310 309
259 261 262 263 264 264 265 265 265 266 266 267 267 267 267 267 267 267 267 267 267 267 267 267 267 268 268 269 268 269 270 271 272 272 273 273 273 274 275 276 278 279 281 284 286 287 290 292 293 295 296 297 297 297 298 298 297 298 299 301 303 304 305 306 307 308 308 309 309 311 313 315 317 319 317 309 305 314 316 310 312 312 311 313 313 312 312 312
258 259 261 262 263 264 265 266 266 266 267 267 268 269 269 269 269 269 269 269 269 269 269 268 267 266 266 266 266 267 268 269 269 269 270 271 272 273 274 275 276 277 278 279 281 283 285 287 289 290 292 293 294 295 295 294 295 295 295 296 298 300 301 303 304 304 305 305 305 307 308 311 315 319 318 307 306 315 313 310 312 311 312 313 313 313 312 312
259 260 260 261 262 263 265 266 267 267 267 268 268 269 270 270 270 270 270 271 271 271 271 271 270 269 268 267 266 267 268 268 268 269 269 270 271 272 273 274 275 276 277 278 279 280 282 284 286 287 288 290 291 293 293 293 293 294 295 295 295 296 297 299 300 300 301 302 302 302 304 306 310 317 314 305 308 314 310 310 312 311 312 312 312 312 311 311
261 262 262 263 263 264 264 265 266 267 268 268 269 269 270 271 271 271 271 271 272 272 272 273 273 272 271 270 269 269 269 269 269 270 270 270 271 271 272 273 274 275 276 278 279 281 282 283 285 286 287 288 290 291 292 292 293 293 293 294 295 294 294 295 296 297 298 298 298 298 298 301 305 312 309 304 308 311 308 311 312 312 312 312 312 311 310 310
262 263 264 265 266 266 266 267 267 267 268 268 269 269 270 271 272 272 272 272 272 272 273 273 273 273 273 272 272 272 271 271 272 272 272 273 273 273 273 273 274 275 276 278 280 282 283 284 286 286 287 288 289 290 291 292 293 292 292 292 293 293 293 294 294 294 295 295 296 295 294 296 301 306 303 301 306 307 308 311 311 312 311 311 311 310 309 308
261 262 263 265 266 267 268 268 269 269 269 269 269 269 270 271 272 272 273 273 273 273 273 273 273 273 273 272 273 273 273 274 274 274 274 274 275 275 275 275 276 276 278 279 281 282 284 285 287 287 288 288 289 290 290 291 292 292 291 291 291 291 293 294 295 293 293 293 294 292 290 293 298 301 300 299 302 304 306 309 308 309 310 309 309 309 308 307
260 261 262 263 264 266 267 269 270 270 270 270 270 270 270 270 271 272 273 273 273 274 274 274 274 274 274 274 274 274 274 275 274 274 275 275 275 276 277 277 277 278 279 280 281 282 284 285 287 287 288 288 289 289 290 291 291 291 290 289 289 290 291 293 294 294 293 293 292 290 288 290 295 296 297 299 299 300 304 306 306 307 308 307 306 307 307 305
260 260 261 262 264 265 266 268 269 271 271 272 272 271 270 270 270 270 271 272 273 273 274 274 274 275 275 275 276 275 275 275 275 275 275 275 276 276 277 278 278 278 279 279 280 281 283 284 286 287 288 289 289 290 290 290 290 290 289 289 289 289 289 290 292 292 293 293 293 290 287 288 293 293 294 296 296 297 300 302 304 305 306 305 305 305 304 303
261 260 261 261 263 264 266 268 269 271 272 273 273 273 272 271 271 270 271 271 272 273 273 274 274 274 274 275 276 276 277 277 276 276 275 275 276 277 277 278 278 278 279 279 280 281 283 284 285 287 288 290 290 290 291 290 290 290 289 289 289 288 288 288 288 290 291 292 292 290 288 288 292 293 293 293 292 294 296 298 301 302 303 304 304 303 303 302
262 261 261 261 262 263 265 266 268 270 272 273 274 274 274 273 272 272 271 272 272 273 273 273 274 274 274 274 276 277 277 278 277 276 276 277 278 278 279 278 279 279 280 281 282 283 284 285 286 287 288 289 290 291 291 290 289 289 289 290 289 288 288 287 287 288 289 290 290 290 288 288 290 291 291 291 291 291 292 294 296 298 300 301 301 302 301 301
262 262 262 261 262 262 263 265 266 268 270 272 273 274 274 274 273 273 272 272 272 273 273 273 274 274 274 274 275 276 277 277 277 277 278 278 279 279 279 279 280 281 282 283 284 285 285 286 287 287 288 289 290 291 290 289 289 289 288 288 289 289 289 288 287 287 288 288 287 287 286 288 290 289 288 290 290 290 291 292 293 295 297 297 298 299 300 299
261 262 262 262 262 262 263 264 265 266 268 270 272 273 274 274 273 273 273 273 273 273 273 273 274 274 274 275 275 275 276 276 276 277 278 278 279 279 279 280 281 283 284 284 285 286 287 287 287 287 288 289 291 290 289 289 290 290 288 287 287 287 288 289 289 288 287 287 286 285 285 287 288 288 287 288 288 288 289 290 291 293 295 296 297 298 297 297
261 261 262 262 262 263 263 264 265 266 267 268 270 272 273 274 274 274 274 274 273 274 273 274 274 274 275 276 276 275 275 276 276 277 277 278 279 279 279 281 282 283 284 284 286 287 287 287 287 287 289 291 291 288 287 289 289 288 289 289 288 287 286 288 289 288 287 286 284 284 286 287 287 287 286 286 286 286 288 289 290 291 294 296 297 297 297 297
262 262 262 262 262 262 263 263 264 264 266 267 268 270 272 273 274 275 274 274 274 274 274 273 273 275 276 276 276 276 275 275 276 276 277 278 278 278 280 281 282 283 283 285 286 286 287 286 285 288 292 293 289 286 287 288 288 287 287 287 288 288 287 289 289 288 287 285 284 285 286 287 288 288 287 285 284 285 288 289 289 292 295 296 297 297 298 298
263 263 263 263 263 263 263 263 263 264 264 265 266 268 269 271 273 274 274 274 274 273 273 273 273 273 275 276 276 276 275 275 275 276 277 277 278 279 279 280 281 282 284 286 286 286 286 285 286 292 295 291 288 287 286 286 287 287 287 286 287 287 288 291 289 287 287 285 285 287 286 286 288 288 289 288 286 285 287 290 291 294 296 297 297 298 298 298
263 262 263 263 264 264 264 264 264 264 264 264 265 266 268 270 271 273 273 273 272 272 273 273 273 272 273 274 274 275 275 274 274 276 277 277 278 278 278 280 281 282 284 285 285 286 285 284 289 295 292 288 287 287 287 287 288 287 288 287 286 287 290 291 287 286 286 285 286 287 286 285 287 289 290 290 290 289 288 290 292 295 298 298 297 297 296 297
263 263 263 263 264 265 265 265 265 265 265 265 265 266 267 269 270 271 273 272 271 271 272 271 272 272 272 272 272 273 273 273 274 275 276 277 277 278 279 279 280 281 281 282 284 285 284 284 290 292 288 287 286 286 287 288 288 288 288 287 287 289 291 289 286 287 287 286 287 288 285 285 287 289 289 291 292 292 295 296 294 295 298 297 295 295 295 296
263 263 263 263 264 264 265 265 266 266 267 267 267 267 267 268 269 271 272 273 271 269 269 271 271 271 271 271 271 271 270 272 273 273 274 275 276 277 277 277 279 279 278 281 283 283 282 285 288 287 286 286 285 285 286 287 287 288 287 288 289 291 290 288 287 288 287 287 288 288 286 284 285 286 287 290 291 293 298 297 294 297 298 295 293 293 294 295
264 264 264 264 264 264 265 266 266 266 267 267 267 267 268 269 270 271 272 273 272 270 269 270 270 270 270 271 270 271 271 272 272 272 273 274 275 275 275 276 277 276 277 280 281 280 281 284 286 285 285 285 284 284 286 287 287 287 287 288 290 290 289 288 289 289 288 287 287 289 287 284 284 285 285 287 289 292 293 292 296 302 300 294 293 293 294 295
264 264 264 264 265 265 265 266 267 267 267 267 267 267 268 269 270 271 272 273 274 272 270 269 269 270 271 271 271 272 272 271 272 273 274 273 273 274 274 274 274 274 277 279 279 278 278 282 284 285 284 284 283 283 285 286 287 287 287 288 289 289 289 288 289 289 288 287 286 288 288 286 285 286 287 289 291 290 289 293 302 306 302 296 294 294 295 294
265 265 265 265 265 266 266 267 268 269 269 268 268 268 268 268 270 271 272 274 275 275 272 270 269 269 270 272 274 275 274 274 275 275 274 273 273 273 272 272 272 274 275 276 276 276 277 280 282 282 282 281 281 282 284 286 287 286 286 288 288 288 288 288 289 288 288 288 287 287 289 291 290 290 292 295 293 290 293 302 308 306 302 299 296 294 294 292
266 266 267 267 267 267 267 268 269 270 271 270 270 269 269 269 270 271 272 274 275 275 274 272 271 271 272 273 274 275 277 280 280 277 275 273 272 271 271 271 272 272 274 274 273 274 277 279 279 279 279 279 279 282 284 285 284 284 286 288 287 287 288 287 287 287 287 287 286 285 289 293 293 294 297 296 292 293 301 309 309 303 299 298 297 294 291 287
265 266 267 267 268 268 268 269 269 270 271 271 271 271 271 271 271 271 272 273 275 276 276 275 276 277 277 276 276 277 279 282 282 279 277 273 271 269 269 270 271 270 271 272 272 275 276 276 277 277 277 277 280 282 283 282 282 283 285 285 285 286 286 285 285 285 285 285 283 285 291 293 292 294 295 291 292 298 306 311 309 302 299 298 296 295 293 288
265 265 266 266 267 268 268 269 269 270 270 271 271 271 271 271 271 271 270 270 272 275 277 279 280 281 281 282 282 282 281 280 279 279 277 275 273 270 269 268 269 269 269 269 271 273 274 275 276 275 275 278 280 280 280 280 279 280 282 283 284 285 284 284 283 283 284 282 283 288 295 294 291 291 291 291 297 302 308 311 306 303 305 301 297 296 296 294
265 266 266 266 266 266 267 268 269 269 270 270 270 271 271 270 270 270 267 268 271 274 278 281 282 282 283 285 286 285 283 280 278 277 277 277 276 273 271 269 268 268 269 269 269 271 273 274 273 273 276 277 277 277 277 277 277 278 280 282 283 283 282 282 281 282 282 281 285 292 293 291 289 288 290 296 302 304 307 307 302 303 305 300 295 293 293 294
264 264 265 265 265 265 266 267 268 268 268 268 268 269 269 269 268 266 266 270 272 275 278 281 283 285 286 286 284 284 283 282 280 278 277 277 276 275 273 271 269 268 268 268 269 270 271 271 273 274 275 274 275 275 274 274 275 277 279 280 281 281 280 280 280 280 281 283 289 292 290 287 284 285 291 299 302 303 303 302 299 304 305 299 295 292 290 290
265 265 264 265 265 266 266 267 268 268 268 268 267 266 267 266 265 265 268 272 274 275 278 280 283 286 286 284 282 281 281 282 281 280 278 276 275 275 275 274 272 270 268 268 269 270 269 269 272 273 273 274 275 275 274 275 275 276 276 276 277 278 278 279 279 280 282 284 287 287 286 284 282 286 292 298 300 299 300 300 301 306 306 301 296 293 291 289
265 264 264 263 264 266 267 268 269 269 269 268 267 267 265 263 265 269 271 272 274 278 281 281 281 282 282 283 282 281 280 280 280 280 279 277 276 275 275 276 276 275 272 271 270 269 268 267 269 271 273 275 275 273 274 273 272 272 272 272 273 274 275 277 279 282 283 283 284 284 282 282 283 288 293 295 295 295 297 301 304 307 307 301 297 295 290 285
266 265 264 264 264 265 267 270 271 271 271 270 269 268 265 264 269 274 273 273 275 277 278 278 279 280 280 281 281 281 281 280 279 279 279 279 277 275 275 276 277 277 277 275 273 272 271 269 268 270 271 271 270 270 271 272 271 270 270 270 270 271 273 276 279 280 281 281 281 280 280 282 286 291 293 292 292 293 296 301 304 305 304 301 297 290 284 281
267 267 266 265 265 266 268 268 269 270 271 271 270 268 266 268 272 274 275 275 274 273 274 275 276 277 277 277 278 279 279 280 280 280 279 277 276 275 273 272 274 277 278 278 276 277 277 273 270 271 270 268 268 268 269 271 271 271 271 270 271 272 275 277 277 277 277 277 277 278 279 283 287 289 289 290 291 293 295 301 303 300 301 300 291 284 282 282
266 266 266 266 266 267 267 266 267 268 268 268 267 265 267 271 273 274 273 273 273 273 273 273 271 272 273 273 275 276 277 279 279 278 277 276 275 273 272 272 274 275 277 278 279 280 279 275 272 272 272 269 268 268 268 270 271 270 270 271 274 276 276 275 275 275 275 276 276 278 281 284 286 287 286 287 290 291 293 299 302 298 297 292 284 284 286 284
265 265 265 266 267 266 265 265 265 264 264 263 261 263 268 270 270 271 271 272 274 274 272 271 270 270 270 271 273 273 275 276 276 276 276 275 275 275 275 275 275 275 276 280 281 279 278 276 274 273 272 271 270 270 269 270 270 270 271 273 275 275 274 274 275 275 275 275 276 277 280 283 286 287 287 290 290 290 293 301 303 298 294 287 283 286 289 287
265 265 265 265 267 267 266 266 265 265 265 264 262 263 264 266 267 268 270 271 273 273 273 272 271 270 269 270 271 271 271 273 273 274 275 275 276 277 278 277 277 276 277 279 279 279 279 279 276 274 273 272 271 271 271 271 272 275 276 276 274 273 272 272 273 273 274 275 275 276 279 281 283 285 288 290 289 289 296 303 302 298 292 287 285 286 288 290
264 265 264 264 266 267 268 267 266 265 263 262 264 264 263 264 265 266 267 269 270 271 272 271 271 271 269 268 269 269 269 271 272 272 274 275 277 278 278 277 277 276 278 279 278 279 279 278 277 277 276 274 272 271 272 273 276 279 278 276 273 271 271 271 271 272 273 274 274 276 279 280 280 282 283 283 286 292 300 302 300 299 294 288 285 285 287 289
263 264 263 262 263 265 267 267 265 264 262 261 263 265 266 265 263 263 265 266 267 268 268 269 270 270 269 268 268 269 269 269 270 271 272 274 276 277 277 277 278 278 278 278 277 277 277 275 277 279 277 274 273 273 275 276 276 275 275 274 272 272 271 270 270 273 273 272 272 275 277 277 278 279 279 280 287 295 298 298 298 299 295 289 286 287 287 287
259 261 261 260 259 259 260 261 260 261 263 264 264 266 267 266 264 263 263 264 265 265 264 265 266 267 268 268 268 269 269 269 269 270 270 272 274 276 277 277 278 277 277 276 276 276 276 275 275 275 274 274 276 277 276 275 272 271 271 271 271 272 272 270 271 274 274 272 273 275 276 276 278 279 280 285 291 293 294 296 297 297 293 289 287 286 287 286
255 257 258 259 258 257 257 258 258 259 261 263 264 265 265 265 264 263 261 260 261 261 261 261 263 264 266 268 269 270 270 270 270 270 270 271 271 272 274 275 276 276 275 275 275 276 276 274 273 273 275 276 276 275 274 272 271 270 269 269 271 271 271 271 272 274 274 272 274 275 273 275 281 281 283 289 292 292 293 294 295 294 291 289 287 285 285 284
255 256 257 257 257 257 257 257 258 259 261 262 262 262 261 261 261 260 258 258 259 259 258 259 259 260 263 265 266 268 271 272 272 271 272 271 270 270 271 272 274 275 275 275 275 276 275 274 273 275 274 272 271 271 271 271 270 269 271 273 275 274 273 272 271 271 270 269 272 271 268 274 284 285 285 290 291 290 291 291 291 290 289 288 287 285 284 283
256 255 256 257 257 256 256 257 258 259 261 261 260 259 259 259 259 259 259 261 262 260 256 255 256 258 260 262 263 265 268 270 271 270 270 271 270 270 270 271 273 274 275 276 277 276 274 272 272 272 271 269 268 268 268 269 269 272 274 275 275 276 275 273 272 270 268 268 269 266 266 275 286 287 286 288 288 287 286 285 286 286 285 285 285 285 285 286
257 255 255 255 256 256 255 256 257 258 258 258 259 258 259 259 260 261 262 264 264 262 259 256 256 257 260 261 262 263 263 265 267 267 267 269 270 270 271 271 272 272 274 274 274 273 271 270 270 269 269 269 268 267 268 270 271 271 272 272 273 273 272 271 270 268 268 270 267 264 268 278 285 285 285 286 286 284 282 281 282 281 281 282 284 286 287 289
258 257 255 254 254 255 254 255 256 257 257 258 259 259 259 260 260 261 263 264 264 264 263 260 258 258 258 259 260 262 262 264 266 266 266 268 270 271 272 271 270 270 270 269 269 270 269 268 267 267 268 270 270 268 268 270 271 270 270 271 271 270 270 269 267 267 270 272 269 267 273 279 280 280 283 284 282 280 279 279 279 279 281 283 284 284 287 289
258 258 257 256 256 255 255 253 254 256 257 258 258 258 258 258 259 259 260 261 263 263 262 260 259 260 260 260 262 264 265 265 265 266 267 267 267 267 267 267 267 267 266 265 265 268 270 269 268 268 269 272 273 273 271 270 271 271 270 269 269 270 269 267 268 270 273 271 268 270 275 276 277 280 281 281 279 276 276 276 276 278 281 282 281 281 284 287
259 259 258 258 257 256 256 255 254 255 256 256 256 255 254 253 254 254 255 257 259 259 259 259 258 259 260 262 263 264 263 263 263 265 267 267 266 264 264 264 264 264 264 263 264 268 271 272 272 272 273 273 274 273 272 271 270 270 269 269 268 268 267 268 270 271 269 266 267 271 273 274 276 279 278 277 275 275 276 277 277 278 277 278 281 283 283 285
260 259 259 258 257 256 256 256 255 255 255 256 256 256 256 254 253 253 254 255 256 255 256 258 258 259 260 261 262 263 262 262 263 265 267 268 267 266 265 264 264 265 265 266 267 268 273 275 275 274 273 272 271 270 269 269 267 266 267 268 267 266 266 267 269 266 264 265 268 271 272 272 273 274 275 274 273 275 277 277 277 275 272 277 286 288 285 286
259 259 258 257 257 256 256 255 255 255 255 255 256 257 258 258 257 257 258 259 260 259 258 260 260 260 261 263 264 265 264 265 266 266 267 270 270 270 268 266 265 265 266 267 269 270 273 275 274 274 274 271 269 270 269 269 268 268 266 265 265 266 268 268 266 265 265 266 267 268 268 268 269 270 272 272 272 274 276 275 273 271 271 280 288 289 287 289
259 258 258 257 256 256 256 256 256 256 256 255 256 256 257 257 257 259 260 261 262 263 263 262 262 263 264 266 266 267 267 268 269 269 269 270 271 271 271 269 268 267 266 267 269 270 271 272 272 274 275 273 270 269 269 270 273 273 269 266 267 268 270 269 266 265 266 265 264 264 264 265 267 268 267 268 270 273 273 272 272 274 279 284 287 287 288 290
259 258 258 257 257 256 257 257 256 256 256 256 257 257 257 257 257 258 259 259 260 262 263 264 264 265 266 267 267 268 269 270 270 270 269 269 269 270 270 270 269 268 268 267 268 269 270 273 274 275 276 275 272 271 273 274 273 270 271 276 276 270 266 264 261 260 261 261 262 262 263 267 270 269 266 266 269 271 272 275 281 285 287 287 287 288 289 290
Height
5891 5891 5891 5891 5891 5892 5892 5892 5892 5892 5892 5892 5892 5892 5892 5891 5891 5891 5891 5891 5890 5890 5890 5889 5889 5889 5888 5888 5887 5887 5887 5886 5886 5885 5885 5884 5884 5883 5883 5882 5881 5881 5880 5879 5879 5878 5877 5876 5875 5874 5873 5872 5871 5870 5869 5868 5867 5866 5865 5865 5864 5863 5862 5861 5860 5859 5858 5857 5857 5856 5855 5854 5853 5852 5851 5850 5849 5848 5847 5846 5845 5844 5842 5842 5841 5840 5840 5839
5888 5889 5889 5889 5889 5890 5890 5890 5890 5890 5890 5890 5890 5890 5890 5890 5890 5890 5889 5889 5889 5889 5888 5888 5888 5887 5887 5886 5886 5886 5885 5885 5885 5884 5884 5883 5883 5882 5882 5881 5880 5879 5879 5878 5877 5877 5876 5875 5874 5873 5872 5871 5871 5870 5869 5868 5867 5866 5865 5864 5863 5862 5861 5860 5859 5858 5857 5856 5855 5854 5853 5852 5851 5851 5849 5848 5847 5846 5845 5844 5843 5842 5841 5841 5840 5839 5838 5837
5886 5886 5886 5887 5887 5887 5888 5888 5888 5888 5888 5888 5888 5888 5888 5888 5888 5888 5888 5888 5887 5887 5887 5886 5886 5886 5885 5885 5884 5884 5883 5883 5883 5883 5882 5882 5881 5881 5880 5880 5879 5878 5877 5877 5876 5875 5874 5873 5873 5872 5871 5871 5870 5869 5868 5867 5866 5865 5864 5863 5862 5861 5860 5859 5858 5857 5856 5855 5854 5853 5852 5850 5850 5849 5847 5846 5845 5844 5843 5842 5842 5841 5840 5839 5838 5837 5837 5836
5883 5884 5884 5884 5885 5885 5885 5885 5886 5886 5886 5886 5886 5886 5886 5886 5886 5886 5886 5886 5885 5885 5885 5884 5884 5884 5883 5883 5882 5882 5882 5881 5881 5881 5880 5880 5879 5879 5879 5878 5877 5876 5876 5875 5874 5873 5872 5872 5871 5871 5870 5869 5868 5867 5866 5865 5865 5864 5863 5862 5861 5860 5859 5858 5856 5856 5854 5853 5852 5851 5850 5849 5848 5847 5845 5844 5843 5842 5841 5840 5839 5838 5837 5837 5836 5835 5834 5834
5881 5881 5881 5882 5882 5882 5882 5883 5883 5883 5883 5883 5883 5884 5884 5884 5884 5884 5884 5883 5883 5883 5883 5882 5882 5881 5881 5881 5880 5880 5879 5879 5879 5879 5878 5878 5877 5877 5877 5876 5876 5875 5874 5873 5872 5871 5871 5870 5869 5868 5868 5867 5867 5866 5865 5864 5863 5862 5861 5860 5859 5858 5857 5856 5855 5854 5853 5852 5851 5850 5849 5848 5847 5845 5843 5842 5840 5840 5839 5837 5837 5836 5835 5834 5834 5833 5832 5831
5878 5878 5879 5879 5879 5880 5880 5880 5880 5880 5881 5880 5880 5881 5881 5881 5881 5881 5881 5881 5881 5880 5880 5880 5879 5879 5878 5878 5878 5877 5877 5877 5877 5876 5876 5875 5875 5875 5874 5874 5873 5873 5872 5871 5871 5870 5869 5868 5867 5866 5865 5865 5864 5864 5863 5862 5861 5861 5860 5859 5858 5857 5856 5855 5853 5852 5851 5850 5849 5848 5847 5846 5845 5844 5842 5839 5838 5838 5837 5836 5834 5834 5832 5832 5831 5830 5829 5829
5875 5876 5876 5876 5876 5877 5877 5877 5877 5878 5878 5878 5877 5877 5877 5878 5878 5878 5878 5878 5878 5878 5878 5877 5877 5876 5876 5875 5875 5875 5874 5874 5874 5874 5873 5873 5872 5872 5872 5872 5871 5871 5870 5869 5869 5868 5867 5866 5865 5864 5863 5862 5862 5861 5861 5860 5859 5858 5857 5857 5856 5855 5854 5853 5852 5850 5849 5848 5847 5846 5845 5844 5843 5842 5840 5836 5836 5837 5836 5834 5833 5832 5830 5829 5829 5828 5827 5826
5873 5873 5873 5873 5874 5874 5874 5874 5874 5875 5875 5875 5875 5874 5874 5874 5875 5875 5875 5875 5875 5875 5875 5874 5874 5873 5873 5873 5872 5872 5872 5871 5871 5871 5871 5870 5870 5870 5869 5869 5869 5868 5868 5867 5866 5865 5864 5863 5862 5862 5861 5860 5859 5859 5858 5857 5857 5856 5855 5854 5853 5852 5851 5850 5849 5848 5847 5846 5845 5844 5843 5842 5842 5841 5838 5834 5834 5835 5833 5833 5831 5830 5829 5827 5826 5825 5824 5823
5870 5870 5871 5871 5871 5871 5871 5871 5871 5871 5872 5872 5872 5872 5871 5871 5871 5871 5871 5872 5872 5872 5871 5871 5871 5870 5870 5870 5869 5870 5869 5868 5868 5868 5868 5868 5867 5867 5867 5867 5866 5866 5865 5864 5863 5862 5862 5861 5860 5859 5859 5858 5857 5856 5855 5854 5854 5853 5852 5851 5850 5849 5849 5848 5847 5845 5845 5844 5843 5842 5841 5840 5840 5840 5836 5832 5832 5832 5831 5830 5830 5828 5827 5825 5824 5823 5821 5820
5867 5867 5867 5868 5868 5868 5868 5868 5868 5868 5868 5868 5869 5869 5868 5868 5868 5868 5868 5868 5868 5868 5868 5867 5867 5867 5867 5866 5867 5868 5866 5866 5866 5865 5865 5865 5865 5865 5864 5864 5864 5863 5862 5862 5861 5860 5859 5858 5857 5856 5856 5855 5854 5853 5852 5851 5851 5850 5849 5849 5847 5846 5845 5845 5844 5843 5842 5841 5840 5839 5839 5838 5838 5838 5835 5832 5831 5829 5829 5828 5826 5826 5825 5823 5821 5820 5819 5817
5864 5864 5864 5865 5865 5865 5865 5865 5865 5865 5865 5865 5865 5865 5866 5865 5864 5864 5864 5864 5864 5864 5863 5863 5863 5863 5863 5863 5864 5864 5863 5863 5863 5862 5862 5862 5862 5862 5862 5861 5861 5860 5860 5859 5858 5857 5856 5856 5855 5854 5853 5852 5852 5850 5850 5849 5848 5847 5846 5846 5845 5843 5842 5842 5841 5839 5838 5838 5837 5835 5835 5836 5836 5836 5833 5830 5830 5828 5827 5826 5824 5823 5822 5820 5819 5817 5816 5814
5860 5861 5861 5861 5861 5862 5862 5862 5862 5862 5862 5862 5862 5862 5862 5862 5862 5861 5860 5860 5860 5860 5859 5859 5859 5859 5858 5859 5861 5860 5860 5860 5860 5860 5859 5859 5859 5859 5859 5858 5858 5857 5857 5856 5856 5854 5853 5853 5852 5851 5850 5849 5849 5847 5846 5846 5844 5844 5843 5842 5842 5840 5840 5839 5837 5835 5834 5834 5833 5830 5830 5834 5834 5832 5831 5828 5827 5826 5825 5824 5821 5820 5819 5817 5816 5814 5813 5811
5857 5857 5857 5857 5858 5858 5858 5859 5859 5858 5858 5858 5858 5858 5858 5859 5858 5857 5857 5857 5856 5856 5855 5855 5855 5854 5854 5856 5857 5856 5856 5856 5856 5856 5856 5855 5856 5856 5855 5855 5855 5854 5853 5853 5852 5851 5851 5850 5849 5848 5847 5846 5845 5844 5843 5842 5841 5840 5839 5838 5838 5836 5836 5836 5834 5832 5830 5830 5829 5825 5824 5830 5832 5827 5828 5827 5824 5823 5823 5821 5819 5817 5816 5814 5813 5811 5810 5808
5853 5853 5854 5854 5854 5854 5854 5855 5855 5855 5855 5854 5854 5854 5854 5854 5854 5854 5853 5853 5852 5852 5852 5851 5850 5850 5849 5852 5853 5852 5852 5852 5852 5852 5852 5852 5852 5852 5852 5851 5851 5850 5850 5849 5849 5848 5848 5847 5846 5845 5845 5843 5842 5840 5839 5838 5838 5836 5834 5834 5834 5832 5832 5832 5831 5829 5827 5826 5825 5820 5818 5825 5830 5824 5821 5823 5821 5820 5819 5819 5817 5814 5813 5811 5809 5807 5806 5805
5850 5850 5850 5850 5850 5850 5850 5851 5851 5851 5851 5851 5850 5850 5849 5850 5850 5850 5849 5849 5849 5848 5848 5847 5846 5845 5845 5847 5849 5848 5848 5848 5847 5847 5847 5848 5848 5848 5848 5847 5846 5846 5846 5845 5845 5845 5844 5843 5842 5842 5842 5841 5839 5837 5835 5833 5834 5833 5830 5830 5829 5827 5827 5827 5827 5825 5823 5821 5820 5816 5812 5817 5826 5825 5818 5817 5817 5816 5816 5816 5814 5811 5810 5808 5806 5804 5802 5801
5846 5846 5846 5846 5847 5847 5846 5847 5847 5848 5847 5847 5846 5845 5845 5845 5845 5845 5845 5846 5845 5844 5844 5843 5843 5841 5840 5843 5845 5845 5844 5844 5843 5843 5844 5844 5844 5844 5843 5843 5842 5842 5841 5841 5841 5840 5840 5839 5838 5838 5838 5838 5836 5833 5830 5829 5830 5828 5825 5825 5825 5823 5822 5821 5821 5821 5818 5817 5816 5813 5808 5810 5818 5821 5818 5814 5812 5811 5811 5812 5811 5808 5806 5804 5802 5802 5799 5797
5841 5842 5842 5842 5842 5843 5843 5843 5843 5844 5844 5843 5842 5841 5840 5840 5841 5841 5841 5841 5840 5840 5839 5838 5839 5836 5836 5839 5841 5841 5840 5839 5839 5839 5839 5840 5840 5840 5839 5838 5838 5837 5837 5836 5836 5836 5835 5834 5834 5833 5834 5834 5833 5829 5824 5825 5826 5823 5820 5820 5821 5820 5818 5817 5815 5815 5813 5811 5810 5807 5804 5806 5811 5814 5815 5813 5808 5806 5806 5807 5807 5805 5803 5800 5798 5798 5796 5794
5837 5837 5837 5838 5838 5838 5838 5838 5839 5840 5839 5839 5838 5837 5835 5834 5835 5836 5837 5837 5836 5836 5835 5834 5834 5832 5832 5835 5836 5836 5836 5835 5835 5835 5835 5836 5836 5835 5834 5834 5834 5833 5832 5832 5832 5832 5830 5829 5829 5829 5830 5831 5829 5825 5820 5821 5822 5819 5816 5814 5814 5815 5814 5814 5811 5808 5808 5805 5803 5802 5799 5800 5804 5807 5810 5810 5806 5802 5802 5803 5802 5801 5799 5796 5793 5792 5791 5790
5832 5832 5833 5833 5833 5834 5834 5834 5834 5835 5835 5835 5834 5833 5831 5830 5830 5831 5832 5832 5832 5832 5830 5829 5830 5828 5828 5831 5831 5831 5831 5831 5831 5831 5832 5832 5831 5831 5830 5830 5830 5829 5827 5828 5827 5827 5826 5824 5824 5825 5827 5826 5823 5820 5818 5817 5817 5815 5814 5811 5809 5809 5809 5811 5807 5803 5803 5798 5796 5797 5794 5794 5797 5800 5803 5805 5804 5800 5799 5798 5798 5797 5795 5792 5789 5787 5786 5785
5827 5827 5828 5828 5828 5828 5828 5829 5829 5830 5830 5830 5829 5828 5827 5825 5825 5825 5825 5827 5827 5827 5825 5824 5825 5824 5824 5825 5826 5825 5826 5826 5826 5827 5828 5828 5827 5826 5826 5825 5825 5824 5823 5823 5821 5821 5821 5817 5819 5823 5823 5821 5817 5816 5814 5813 5812 5811 5809 5807 5806 5804 5805 5807 5802 5798 5798 5792 5791 5792 5788 5788 5791 5794 5797 5799 5798 5798 5796 5794 5793 5793 5791 5788 5785 5782 5781 5780
5821 5822 5822 5823 5823 5823 5823 5824 5825 5824 5825 5825 5825 5824 5822 5821 5821 5819 5820 5821 5821 5821 5821 5819 5818 5819 5820 5821 5820 5820 5820 5821 5822 5824 5824 5823 5823 5822 5822 5822 5820 5819 5820 5819 5815 5816 5814 5812 5817 5821 5818 5816 5813 5811 5810 5808 5807 5806 5805 5803 5801 5801 5801 5801 5797 5795 5793 5787 5786 5788 5783 5782 5786 5788 5791 5793 5793 5792 5793 5792 5789 5788 5787 5783 5780 5777 5776 5776
5816 5816 5817 5817 5818 5818 5818 5818 5819 5819 5820 5820 5820 5819 5818 5817 5816 5814 5813 5812 5815 5817 5815 5814 5813 5814 5815 5815 5815 5816 5815 5815 5818 5820 5820 5819 5818 5818 5817 5817 5816 5814 5814 5814 5812 5810 5807 5807 5814 5816 5813 5811 5810 5808 5806 5804 5803 5802 5801 5798 5797 5798 5796 5794 5791 5791 5789 5783 5781 5781 5776 5777 5782 5784 5786 5789 5788 5787 5787 5787 5785 5784 5783 5779 5775 5773 5772 5772
5810 5811 5811 5812 5812 5812 5812 5813 5813 5814 5814 5814 5815 5814 5814 5812 5811 5810 5807 5804 5806 5811 5810 5809 5809 5808 5809 5809 5810 5810 5809 5811 5814 5815 5817 5815 5814 5815 5812 5812 5813 5809 5808 5810 5809 5804 5800 5804 5810 5811 5808 5807 5805 5804 5803 5800 5798 5797 5796 5794 5793 5795 5791 5786 5786 5786 5784 5779 5776 5775 5769 5770 5777 5778 5781 5784 5784 5784 5782 5779 5779 5779 5778 5773 5770 5768 5767 5767
5804 5805 5805 5806 5807 5806 5807 5808 5807 5808 5809 5809 5809 5809 5808 5808 5806 5805 5802 5797 5794 5800 5806 5804 5802 5802 5803 5804 5804 5804 5805 5807 5808 5810 5813 5811 5810 5810 5808 5808 5807 5803 5803 5806 5804 5798 5796 5800 5804 5805 5804 5802 5800 5799 5799 5796 5793 5791 5791 5791 5789 5790 5786 5782 5780 5780 5778 5774 5771 5770 5761 5760 5771 5772 5775 5780 5780 5780 5779 5774 5772 5773 5771 5767 5764 5764 5763 5762
5799 5799 5799 5801 5800 5800 5802 5802 5801 5802 5802 5803 5803 5803 5803 5802 5801 5800 5797 5791 5783 5788 5798 5798 5796 5797 5797 5798 5800 5801 5800 5801 5803 5806 5808 5807 5805 5805 5803 5802 5801 5798 5800 5801 5798 5792 5792 5796 5799 5799 5798 5797 5794 5793 5795 5793 5788 5785 5786 5788 5786 5783 5781 5778 5776 5774 5771 5769 5767 5766 5756 5749 5760 5767 5767 5773 5774 5773 5774 5772 5769 5765 5763 5761 5759 5758 5757 5756
5793 5793 5794 5795 5795 5795 5796 5796 5796 5796 5796 5797 5797 5797 5797 5796 5796 5794 5792 5786 5774 5775 5787 5790 5790 5792 5793 5795 5796 5797 5795 5796 5800 5801 5801 5801 5801 5800 5798 5796 5796 5795 5795 5795 5791 5785 5787 5793 5794 5793 5791 5790 5788 5788 5791 5789 5783 5778 5779 5783 5782 5778 5776 5774 5772 5768 5765 5763 5760 5762 5758 5743 5743 5756 5761 5763 5765 5765 5766 5768 5767 5761 5756 5754 5752 5752 5752 5751
5788 5788 5788 5789 5789 5789 5790 5790 5790 5790 5791 5791 5791 5791 5791 5791 5791 5789 5787 5781 5767 5764 5774 5779 5782 5786 5790 5793 5793 5792 5790 5792 5796 5795 5795 5795 5794 5793 5791 5790 5790 5790 5789 5788 5783 5780 5784 5789 5788 5787 5786 5784 5783 5784 5786 5785 5779 5773 5773 5777 5775 5773 5772 5768 5767 5764 5760 5759 5752 5755 5762 5745 5730 5741 5753 5753 5755 5757 5760 5763 5763 5759 5753 5749 5746 5744 5746 5747
5782 5783 5783 5783 5783 5783 5784 5785 5784 5785 5785 5785 5785 5785 5784 5785 5785 5784 5783 5775 5760 5755 5761 5768 5774 5779 5784 5787 5789 5789 5788 5789 5789 5788 5788 5788 5786 5786 5785 5784 5784 5783 5784 5781 5776 5776 5779 5781 5782 5781 5779 5778 5779 5780 5780 5779 5774 5769 5769 5770 5769 5768 5766 5763 5762 5759 5756 5752 5744 5748 5761 5749 5727 5731 5742 5743 5748 5753 5756 5758 5757 5754 5751 5748 5743 5738 5739 5742
5777 5777 5778 5777 5777 5778 5778 5779 5779 5779 5778 5779 5779 5778 5779 5780 5778 5779 5777 5766 5754 5751 5754 5760 5767 5772 5775 5779 5781 5783 5784 5784 5783 5782 5782 5781 5779 5779 5778 5779 5777 5774 5777 5775 5771 5772 5773 5774 5776 5774 5773 5774 5775 5774 5773 5772 5769 5766 5765 5764 5764 5762 5760 5758 5755 5754 5752 5743 5738 5745 5755 5747 5727 5724 5730 5733 5741 5747 5750 5752 5750 5749 5747 5745 5742 5736 5733 5734
5770 5771 5772 5771 5772 5772 5772 5773 5772 5772 5772 5772 5772 5772 5773 5772 5772 5772 5766 5755 5750 5752 5753 5754 5758 5763 5769 5772 5773 5773 5775 5776 5777 5776 5775 5774 5773 5773 5771 5771 5770 5768 5769 5767 5765 5767 5768 5768 5767 5767 5769 5769 5769 5768 5767 5766 5763 5762 5761 5758 5758 5756 5753 5752 5748 5749 5746 5735 5736 5744 5748 5744 5727 5716 5721 5727 5733 5739 5743 5746 5745 5745 5744 5740 5739 5736 5731 5728
5764 5764 5765 5765 5765 5765 5766 5766 5765 5766 5765 5765 5766 5766 5765 5764 5765 5761 5751 5747 5749 5752 5753 5751 5751 5756 5761 5765 5765 5765 5765 5766 5768 5769 5768 5768 5767 5766 5765 5764 5763 5762 5760 5759 5759 5762 5761 5760 5760 5761 5763 5762 5761 5762 5761 5760 5758 5758 5757 5754 5752 5749 5746 5744 5741 5743 5740 5731 5734 5739 5738 5737 5724 5714 5720 5725 5726 5729 5736 5740 5739 5740 5740 5736 5734 5732 5728 5725
5756 5756 5757 5758 5759 5759 5759 5759 5759 5759 5758 5758 5758 5758 5758 5756 5754 5749 5744 5746 5748 5747 5750 5751 5749 5751 5752 5753 5756 5758 5758 5757 5759 5760 5760 5761 5760 5759 5759 5757 5757 5756 5753 5753 5754 5755 5754 5754 5755 5754 5755 5756 5756 5755 5754 5753 5753 5752 5751 5749 5746 5742 5738 5735 5733 5735 5735 5731 5731 5732 5729 5723 5715 5714 5722 5724 5722 5721 5726 5732 5734 5734 5733 5730 5728 5725 5723 5720
5748 5748 5750 5751 5752 5752 5751 5752 5752 5751 5750 5751 5750 5749 5750 5746 5742 5743 5742 5744 5744 5742 5746 5747 5745 5745 5744 5744 5746 5748 5750 5750 5751 5752 5751 5753 5753 5753 5753 5752 5752 5750 5748 5748 5747 5746 5745 5747 5749 5748 5749 5752 5750 5748 5747 5747 5747 5746 5745 5743 5740 5737 5732 5729 5728 5729 5728 5726 5725 5724 5721 5712 5708 5713 5719 5721 5719 5715 5718 5726 5728 5727 5726 5723 5721 5719 5716 5713
5740 5740 5741 5744 5745 5745 5746 5746 5745 5744 5743 5742 5741 5741 5740 5736 5736 5739 5739 5740 5742 5740 5740 5740 5739 5739 5738 5737 5737 5739 5741 5741 5743 5744 5744 5744 5744 5745 5747 5747 5746 5745 5744 5742 5740 5739 5737 5738 5742 5742 5743 5744 5742 5742 5741 5739 5739 5738 5737 5736 5732 5731 5728 5725 5726 5725 5720 5718 5717 5714 5709 5705 5705 5709 5711 5711 5712 5710 5713 5721 5723 5721 5719 5717 5715 5713 5709 5706
5733 5733 5734 5735 5737 5739 5740 5739 5739 5738 5735 5733 5731 5729 5729 5730 5733 5735 5733 5733 5735 5734 5735 5735 5734 5733 5732 5731 5730 5732 5733 5731 5733 5735 5735 5735 5735 5737 5738 5739 5740 5740 5738 5736 5735 5734 5730 5730 5734 5733 5734 5736 5735 5736 5735 5732 5731 5729 5729 5727 5723 5726 5726 5721 5720 5718 5714 5711 5708 5703 5700 5701 5704 5705 5704 5703 5703 5704 5707 5714 5717 5715 5713 5711 5709 5707 5703 5700
5725 5725 5725 5725 5730 5734 5732 5730 5732 5730 5726 5724 5719 5716 5721 5727 5730 5728 5725 5724 5725 5727 5728 5727 5727 5727 5725 5725 5724 5726 5726 5724 5724 5725 5724 5725 5726 5728 5729 5731 5734 5734 5732 5730 5729 5728 5724 5722 5726 5725 5724 5727 5728 5728 5728 5726 5723 5721 5720 5719 5719 5721 5720 5714 5711 5711 5709 5702 5698 5697 5694 5695 5700 5698 5696 5698 5698 5698 5702 5708 5710 5707 5706 5705 5702 5700 5698 5695
5716 5716 5715 5717 5722 5724 5723 5722 5723 5720 5717 5714 5707 5709 5717 5722 5724 5721 5717 5718 5718 5718 5718 5716 5719 5720 5718 5717 5717 5720 5720 5716 5715 5715 5715 5716 5716 5719 5722 5723 5726 5727 5726 5724 5720 5720 5716 5713 5718 5719 5715 5718 5719 5719 5720 5719 5715 5713 5714 5715 5716 5714 5710 5707 5704 5702 5701 5694 5691 5694 5691 5691 5693 5689 5686 5690 5691 5690 5695 5702 5702 5700 5699 5698 5695 5694 5692 5689
5707 5706 5705 5710 5714 5714 5714 5713 5712 5710 5706 5700 5698 5706 5711 5712 5717 5716 5712 5715 5713 5709 5708 5708 5709 5711 5710 5710 5710 5710 5711 5709 5708 5708 5707 5708 5707 5711 5715 5715 5717 5719 5721 5717 5711 5712 5710 5704 5708 5711 5707 5708 5711 5710 5709 5709 5708 5707 5709 5710 5708 5703 5700 5700 5697 5694 5694 5688 5685 5689 5689 5687 5687 5685 5683 5682 5680 5682 5690 5694 5693 5693 5693 5691 5689 5688 5685 5683
5699 5695 5694 5703 5707 5704 5704 5702 5701 5699 5693 5688 5690 5698 5704 5706 5710 5708 5705 5708 5706 5701 5700 5700 5701 5700 5700 5703 5701 5700 5701 5701 5701 5701 5700 5700 5700 5702 5706 5707 5708 5711 5713 5709 5704 5705 5703 5696 5697 5702 5701 5699 5701 5702 5700 5701 5703 5702 5700 5699 5698 5695 5692 5689 5688 5687 5687 5682 5679 5682 5684 5681 5680 5683 5682 5677 5676 5680 5684 5685 5684 5685 5686 5684 5682 5681 5678 5676
5691 5685 5684 5696 5699 5695 5696 5692 5687 5684 5680 5681 5685 5690 5697 5699 5699 5698 5699 5699 5697 5695 5693 5692 5692 5690 5690 5694 5692 5692 5693 5691 5692 5693 5692 5693 5693 5694 5697 5699 5700 5703 5702 5699 5696 5697 5694 5688 5688 5692 5692 5690 5692 5695 5695 5696 5697 5692 5689 5688 5687 5687 5684 5679 5678 5681 5679 5674 5673 5675 5673 5673 5675 5675 5674 5674 5677 5679 5677 5675 5676 5678 5677 5675 5674 5672 5670 5668
5683 5676 5675 5686 5689 5687 5688 5679 5672 5672 5669 5673 5680 5683 5687 5688 5688 5691 5691 5689 5688 5687 5686 5686 5685 5683 5682 5683 5683 5685 5684 5681 5684 5685 5683 5686 5688 5686 5688 5691 5692 5693 5691 5688 5688 5688 5684 5681 5679 5679 5680 5681 5685 5690 5689 5687 5685 5681 5679 5679 5679 5679 5677 5671 5668 5672 5671 5665 5666 5666 5660 5663 5670 5668 5666 5671 5675 5674 5671 5669 5670 5670 5668 5666 5665 5663 5661 5659
5672 5667 5667 5675 5677 5678 5677 5666 5660 5663 5661 5665 5674 5675 5675 5676 5677 5680 5680 5679 5679 5677 5677 5679 5679 5677 5676 5676 5677 5677 5674 5672 5675 5676 5674 5678 5680 5680 5681 5682 5681 5682 5681 5679 5679 5680 5676 5671 5668 5667 5669 5673 5677 5680 5679 5676 5674 5671 5668 5671 5672 5671 5670 5664 5658 5661 5663 5657 5659 5657 5645 5649 5664 5665 5663 5668 5669 5667 5665 5663 5663 5662 5659 5657 5656 5655 5653 5650
5661 5659 5658 5663 5665 5667 5665 5654 5651 5653 5653 5660 5666 5664 5665 5665 5665 5669 5670 5670 5670 5668 5668 5670 5670 5670 5670 5670 5670 5668 5666 5664 5665 5667 5666 5666 5670 5673 5674 5674 5673 5671 5671 5669 5669 5673 5668 5660 5657 5657 5656 5660 5666 5669 5670 5667 5663 5659 5660 5666 5665 5661 5662 5659 5653 5652 5651 5648 5652 5646 5628 5636 5658 5661 5661 5665 5663 5660 5660 5657 5656 5654 5651 5648 5647 5646 5644 5641
5649 5648 5647 5650 5653 5655 5652 5644 5643 5644 5646 5651 5652 5652 5656 5654 5653 5660 5662 5660 5660 5659 5659 5659 5660 5660 5661 5662 5661 5660 5661 5656 5654 5658 5658 5655 5660 5665 5665 5666 5665 5661 5661 5662 5661 5662 5658 5650 5649 5647 5642 5645 5654 5659 5660 5659 5655 5652 5655 5658 5656 5654 5654 5650 5646 5642 5636 5638 5644 5633 5617 5630 5652 5654 5654 5659 5656 5653 5654 5652 5650 5647 5644 5641 5639 5637 5635 5634
5636 5636 5636 5638 5638 5638 5638 5638 5637 5634 5636 5639 5638 5641 5646 5642 5643 5651 5651 5648 5650 5651 5650 5650 5650 5651 5651 5652 5651 5652 5654 5650 5646 5649 5650 5647 5650 5656 5658 5657 5656 5653 5654 5653 5649 5648 5646 5641 5639 5637 5631 5631 5640 5649 5652 5650 5647 5645 5646 5647 5647 5647 5644 5638 5636 5631 5623 5628 5632 5621 5612 5625 5642 5646 5646 5650 5649 5645 5646 5646 5642 5639 5637 5634 5632 5629 5628 5627
5625 5622 5623 5627 5625 5622 5624 5630 5628 5620 5624 5629 5625 5628 5633 5631 5635 5642 5640 5636 5639 5642 5641 5638 5639 5640 5641 5642 5642 5641 5644 5644 5640 5639 5640 5641 5643 5647 5648 5646 5646 5645 5645 5643 5640 5636 5631 5629 5629 5628 5622 5621 5627 5638 5644 5642 5635 5633 5637 5638 5636 5636 5634 5629 5623 5618 5618 5619 5615 5614 5616 5616 5625 5636 5639 5641 5642 5638 5637 5638 5634 5630 5628 5626 5624 5623 5621 5620
5612 5609 5611 5616 5614 5609 5609 5616 5617 5611 5615 5618 5612 5613 5620 5621 5624 5628 5627 5626 5629 5632 5628 5624 5626 5629 5631 5635 5634 5631 5634 5636 5632 5629 5630 5633 5637 5638 5636 5635 5635 5635 5635 5633 5631 5626 5619 5616 5620 5620 5615 5615 5618 5623 5632 5633 5625 5623 5625 5626 5626 5626 5624 5619 5612 5612 5618 5608 5596 5608 5619 5609 5609 5624 5629 5631 5632 5628 5628 5629 5626 5622 5620 5617 5616 5615 5613 5612
5600 5598 5601 5605 5602 5597 5597 5601 5606 5604 5603 5603 5599 5600 5606 5609 5611 5613 5617 5620 5620 5619 5615 5611 5615 5620 5623 5628 5626 5621 5624 5624 5620 5621 5622 5623 5627 5627 5624 5625 5625 5624 5624 5622 5620 5618 5610 5604 5611 5613 5607 5608 5610 5610 5616 5621 5617 5613 5611 5612 5616 5615 5611 5611 5608 5608 5609 5595 5588 5603 5612 5603 5603 5613 5617 5620 5621 5618 5618 5619 5618 5616 5614 5611 5608 5606 5605 5604
5590 5587 5589 5591 5588 5586 5587 5590 5593 5591 5589 5590 5587 5585 5591 5595 5598 5602 5609 5610 5606 5606 5606 5601 5605 5613 5616 5618 5615 5607 5609 5610 5608 5612 5616 5615 5616 5614 5611 5611 5612 5612 5611 5609 5609 5608 5600 5595 5602 5603 5597 5597 5601 5601 5604 5607 5605 5603 5601 5601 5603 5601 5603 5606 5601 5596 5595 5589 5588 5598 5598 5594 5599 5604 5606 5608 5609 5609 5609 5609 5609 5609 5607 5605 5599 5595 5596 5597
5580 5577 5576 5576 5572 5572 5575 5578 5579 5576 5576 5579 5575 5574 5579 5582 5585 5592 5596 5595 5592 5594 5596 5592 5596 5604 5605 5604 5600 5592 5595 5601 5600 5605 5611 5606 5601 5600 5597 5597 5602 5601 5598 5599 5599 5597 5592 5588 5592 5593 5585 5584 5592 5596 5595 5594 5592 5591 5591 5591 5590 5590 5595 5597 5590 5586 5587 5586 5587 5589 5582 5582 5593 5598 5597 5598 5599 5599 5599 5599 5600 5600 5599 5598 5591 5585 5587 5590
5569 5566 5564 5560 5557 5560 5563 5566 5568 5565 5563 5565 5564 5566 5570 5570 5576 5582 5580 5579 5581 5580 5582 5584 5588 5592 5591 5588 5585 5583 5590 5596 5593 5596 5600 5592 5586 5586 5584 5585 5590 5590 5588 5591 5590 5587 5584 5580 5582 5584 5573 5569 5584 5589 5584 5584 5580 5574 5576 5583 5585 5585 5585 5584 5582 5581 5581 5579 5578 5576 5570 5573 5586 5592 5589 5589 5591 5590 5590 5591 5591 5589 5591 5589 5581 5577 5580 5582
5556 5553 5554 5548 5542 5547 5553 5554 5556 5553 5550 5553 5556 5558 5558 5559 5567 5572 5565 5564 5570 5571 5573 5576 5577 5577 5574 5572 5575 5581 5586 5585 5581 5580 5581 5578 5576 5576 5574 5574 5578 5577 5577 5582 5581 5578 5576 5571 5572 5574 5561 5558 5575 5579 5574 5572 5560 5553 5569 5584 5583 5578 5574 5571 5572 5574 5573 5570 5565 5563 5564 5569 5577 5579 5579 5581 5584 5583 5583 5582 5579 5578 5580 5577 5570 5570 5572 5573